Location: Mount Wilson Observatory
(34.2257°N, 118.0571°W)
Time: 01:01:35
(UTC-07:00)

ATLAS 3B CENTAUR R/B - Visible Passes

Search period start: 29 August 2014 00:00
Search period end: 08 September 2014 00:00
Orbit: 229 x 8502 km, 28.1° (Epoch: 28 August)

Date Brightness Start Highest point End Pass type
(mag) Time Alt. Az. Time Alt. Az. Time Alt. Az.
29 Aug 3.9 04:03:30 35° S 04:06:31 45° SE 04:28:09 10° E visible
30 Aug 4.0 04:40:30 29° SW 04:45:32 58° SSE 05:13:18 10° E visible
31 Aug 5.3 02:12:34 12° ESE 02:12:34 12° ESE 02:14:16 10° ESE visible
31 Aug 4.4 05:17:08 18° WSW 05:24:41 67° SSE 05:58:48 10° E visible
01 Sep 4.7 02:48:53 24° ESE 02:48:53 24° ESE 02:57:22 10° E visible
01 Sep 4.7 05:53:43 10° WSW 06:03:56 71° S 06:44:27 10° E visible
02 Sep 4.0 03:24:51 38° SE 03:24:51 38° SE 03:39:26 10° E visible
03 Sep 3.5 04:00:28 46° S 04:02:05 51° SSE 04:21:30 10° E visible
04 Sep 3.6 04:35:43 36° SW 04:39:24 62° SSE 05:03:49 10° E visible
05 Sep 5.3 02:06:17 11° ESE 02:06:17 11° ESE 02:06:57 10° E visible
05 Sep 4.0 05:10:37 22° WSW 05:16:42 68° S 05:46:27 10° E visible
06 Sep 4.7 02:40:52 22° ESE 02:40:52 22° ESE 02:46:39 10° E visible
06 Sep 4.6 05:45:10 11° W 05:53:57 69° S 06:29:11 10° ESE visible
07 Sep 4.0 03:15:06 38° SE 03:15:06 38° SE 03:25:52 10° E visible
